Von / Nach
Hinflug - Rückflug
Erwachsene / Kinder
Promocode
Nächste Ankünfte Flughafen St.Gallen-Altenrhein

ZeitErw.vonFlugInfo
13:3013:30WienPE121
planmässig
Nächste Abflüge Flughafen St.Gallen-Altenrhein

Zur Zeit stehen leider keine aktuellen Fluginformationen zur Verfügung.

Flugplan

Bitte wählen Sie Ihren gewünschten Abflug- und Zielflughafen aus.


Live aus Altenrhein
LIVE
LSZR 210250Z AUTO VRB02KT CAVOK 07/05 Q1021
Zeitraffer heute
2019-04-21 00:14:50
LSZR 202150Z AUTO VRB01KT CAVOK 10/05 Q1023
Zeitraffer gestern
2019-04-20 00:13:56
LSZR 192150Z AUTO VRB01KT CAVOK 10/05 Q1026

Wien

Samstags-Special: Altenrhein-Wien für EUR 89.-.

 

Jetzt buchen

Menorca

Ab EUR 299.- hin & zurück.

 

Jetzt buchen

Kalabrien

Ab EUR 329.- hin & zurück.

 

Jetzt buchen

Ibiza

Ab EUR 279.- hin & zurück.

 

Jetzt buchen

Mallorca

Ab EUR 349.- hin & zurück.

 

Jetzt buchen

General Aviation

Business & General Aviation LSZR.

 

More information

 

 Shuttlebus


Nutzen Sie unseren

Shuttlebus zwischen Altenrhein

und Dornbirn & Bregenz.

 

Mehr dazu

 

People's Online-Shop


Von der Überraschung an

Bord über Badetücher bis

zum Flugzeugmodell.

 

Mehr dazu


News


Aktuelles von People's

und dem Flughafen

St.Gallen-Altenrhein.

 

Mehr dazu

 

Ad-hoc Charter


Chartern Sie eine unserer

Embraer170 für Ihren eigenen

Anlass oder ACMI-Einsätze.


Mehr dazu

  

 

Teile dein People's-Erlebnis mit uns:

 

#peoplesairline bei Instagram